Location: Nelson
(41.2830°S, 173.2830°E)
Time: 06:49:45
(UTC+12:00)

Cosmos 1850 Rocket - Pass Details

Date: 24 January 2019
Orbit: 755 x 785 km, 74.0° (Epoch: 22 April)

Event Time Altitude Azimuth Distance (km) Brightness Sun altitude
Rises 21:36:08 0° 334° (NNW) 3,220 7.1 -7.5°
Reaches altitude 10° 21:38:31 10° 331° (NNW) 2,298 6.4 -7.8°
Maximum altitude 21:43:42 66° 249° (WSW) 839 4.5 -8.6°
Drops below altitude 10° 21:48:56 10° 166° (SSE) 2,317 6.8 -9.4°
Sets 21:51:20 0° 163° (SSE) 3,249 7.5 -9.8°
